"2010-12-03 00:00:00",389101,0.61,152.7,3.22,0.064,9.16,103.5709,8.42,9.28,34.37,0,110,13.43,9.20,114.7
"2010-12-03 00:00:30",389102,1.135,162.9,7.991,1.12,10.84,103.5794,8.44,9.41,34.43,0,110,13.39,9.22,124.9
"2010-12-03 00:01:00",389103,0.962,175.7,11.59,1.128,9.78,103.5818,8.44,9.25,34.34,0,110,13.39,9.23,137.7
"2010-12-03 00:01:30",389104,1.037,180.8,16.23,1.207,10.46,103.5847,8.45,9.37,34.51,0,110,13.39,9.23,142.8
"2010-12-03 00:02:00",389105,0.831,192.1,7.877,1.149,9.32,103.5911,8.47,9.27,34.49,0,109.9,13.39,9.25,154.1
"2010-12-03 00:02:30",389106,1.229,195,9.24,1.281,9.57,103.5911,8.47,9.27,34.5,0,110,13.39,9.25,157.0
"2010-12-03 00:03:00",389107,1.177,200.7,4.991,1.27,10.44,103.59,8.47,9.42,34.72,0,110,13.38,9.25,162.7
"2010-12-03 00:03:30",389108,0.037,208.9,5.362,0.041,7.416,103.5742,8.43,9.25,34.6,0,110,13.42,9.21,170.9
"2010-12-03 00:04:00",389109,-0.03,228.6,9.4,0.071,7.177,103.5584,8.38,9.25,34.7,0,110,13.42,9.17,190.6
"2010-12-03 00:04:30",389110,-0.143,185.3,43.62,0.005,7.767,103.5575,8.38,9.23,34.85,0,110,13.42,9.16,147.3
"2010-12-03 00:05:00",389111,-0.053,45.17,14.67,0.056,7.451,103.5335,8.32,9.22,35.06,0,110,13.42,9.10,7.2
"2010-12-03 00:05:30",389112,-0.025,29.44,6.467,0.042,7.82,103.5214,8.29,9.19,35.28,0,110,13.42,9.07,351.4
"2010-12-03 00:06:00",389113,0.961,41.18,6.494,1.236,9.18,103.4932,8.22,9.15,35.48,0,110,13.39,9.00,3.2
"2010-12-03 00:06:30",389114,1.322,45.38,7.071,1.319,10.19,103.481,8.19,9.23,35.73,0,110,13.39,8.97,7.4
"2010-12-03 00:07:00",389115,0.254,39.3,1.078,0.037,8.28,103.4565,8.12,9.07,35.67,0,110,13.43,8.90,1.3
"2010-12-03 00:07:30",389116,0.764,41.37,5.178,0.992,9.55,103.4505,8.11,9.18,35.89,0,110,13.4,8.89,3.4
"2010-12-03 00:08:00",389117,1.014,37.61,7.133,1.19,9.35,103.4262,8.05,9.03,35.82,0,110,13.4,8.83,359.6
"2010-12-03 00:08:30",389118,1.127,36.42,8.06,1.255,10.28,103.4229,8.04,9.08,35.96,0,110,13.4,8.82,358.4
"2010-12-03 00:09:00",389119,1.241,43.89,7.448,1.282,9.45,103.4226,8.04,9.13,36.07,0,110,13.4,8.82,5.9
"2010-12-03 00:09:30",389120,0.409,42.58,1.565,0.052,7.256,103.4226,8.04,8.96,36.04,0,110,13.44,8.82,4.6
"2010-12-03 00:10:00",389121,0.524,49.87,2.792,0.032,7.279,103.42,8.03,8.94,36.14,0,110,13.44,8.81,11.9
"2010-12-03 00:10:30",389122,1.753,61.11,7.267,1.306,9.56,103.409,8,9.06,36.32,0,110,13.41,8.78,23.1
"2010-12-03 00:11:00",389123,0.668,60.7,2.451,0.03,7.812,103.4034,7.989,8.9,36.22,0,110,13.44,8.77,22.7
"2010-12-03 00:11:30",389124,1.609,71.12,7.828,1.259,10,103.3977,7.974,9.01,36.38,0,110,13.41,8.75,33.1
"2010-12-03 00:12:00",389125,0.883,73.57,5.364,0.932,9.86,103.3924,7.96,9.02,36.41,0,110,13.41,8.74,35.6
"2010-12-03 00:12:30",389126,0.829,76.96,4.479,1.031,9.72,103.3939,7.964,8.87,36.25,0,110,13.41,8.74,39.0
"2010-12-03 00:13:00",389127,0.958,76.49,5.842,1.11,9.73,103.3991,7.978,8.85,36.22,0,110,13.41,8.76,38.5
"2010-12-03 00:13:30",389128,1.5,83.9,7.267,1.334,11.23,103.4094,8,9.02,36.38,0,110,13.41,8.78,45.9
"2010-12-03 00:14:00",389129,0.332,75.49,3.194,0.026,8.65,103.4186,8.03,8.87,36.21,0,110,13.45,8.81,37.5
"2010-12-03 00:14:30",389130,1.132,77.4,6.963,1.224,10.15,103.4261,8.05,8.99,36.3,0,110,13.41,8.83,39.4
"2010-12-03 00:15:00",389131,0.571,76.98,4.053,0.73,8.91,103.4364,8.07,9,36.26,0,110,13.41,8.85,39.0
"2010-12-03 00:15:30",389132,0.379,75.32,1.352,0.032,8.24,103.4474,8.1,8.89,36.05,0,110,13.45,8.88,37.3
"2010-12-03 00:16:00",389133,0.363,78.76,1.025,0.038,8.17,103.4515,8.11,8.89,36.03,0,110,13.41,8.89,40.8
"2010-12-03 00:16:30",389134,1.538,85.2,6.754,1.331,10.31,103.4527,8.11,9.07,36.21,0,110,13.41,8.90,47.2
"2010-12-03 00:17:00",389135,0.459,79,0.949,0.042,8.14,103.4573,8.13,8.9,35.97,0,110,13.45,8.91,41.0
"2010-12-03 00:17:30",389136,1.519,85.1,9.67,1.248,10.07,103.4573,8.13,8.97,36,0,109.9,13.41,8.91,47.1
"2010-12-03 00:18:00",389137,1.561,79.2,6.995,1.285,10.6,103.4576,8.13,9.06,36.11,0,109.9,13.41,8.91,41.2
"2010-12-03 00:18:30",389138,1.353,76.94,5.427,1.17,10.19,103.4576,8.13,9.07,36.07,0,109.9,13.41,8.91,38.9
"2010-12-03 00:19:00",389139,1.421,73.69,8.78,1.157,9.75,103.4576,8.13,8.98,35.9,0,109.9,13.41,8.91,35.7
"2010-12-03 00:19:30",389140,0.66,65.81,1.542,0.042,8.27,103.4576,8.13,8.97,35.96,0,109.9,13.45,8.91,27.8
"2010-12-03 00:20:00",389141,0.76,61.76,1.393,0.037,7.778,103.4576,8.13,8.94,36.03,0,109.9,13.45,8.91,23.8
"2010-12-03 00:20:30",389142,1.73,63.07,6.488,1.293,9.94,103.4576,8.13,9.08,36.18,0,109.9,13.41,8.91,25.1
"2010-12-03 00:21:00",389143,0.929,56.16,2.556,0.516,8.09,103.4576,8.13,8.98,36.18,0,109.9,13.41,8.91,18.2
"2010-12-03 00:21:30",389144,1.621,55.56,5.689,1.226,9.08,103.4449,8.09,8.92,36.27,0,109.9,13.41,8.88,17.6
"2010-12-03 00:22:00",389145,1.676,54.77,5.917,1.261,9.78,103.4257,8.05,9.08,36.53,0,109.9,13.41,8.83,16.8
"2010-12-03 00:22:30",389146,1.519,49.89,5.18,1.055,8.8,103.4237,8.04,8.95,36.52,0,109.9,13.41,8.82,11.9
"2010-12-03 00:23:00",389147,2.133,56.85,6.03,1.194,10.33,103.4147,8.02,8.99,36.66,0,109.9,13.41,8.80,18.8
"2010-12-03 00:23:30",389148,2.065,62.8,5.364,1.251,10.31,103.3927,7.961,9.05,36.79,0,109.9,13.41,8.74,24.8
"2010-12-03 00:24:00",389149,2.513,67.69,6.294,1.283,10.42,103.3898,7.954,8.94,36.73,0,109.9,13.41,8.73,29.7
"2010-12-03 00:24:30",389150,1.428,62.22,0.619,0.022,7.943,103.3898,7.954,8.83,36.67,0,109.9,13.45,8.73,24.2
"2010-12-03 00:25:00",389151,1.651,64.65,4.492,0.797,8.78,103.3893,7.952,8.94,36.85,0,109.9,13.42,8.73,26.7
"2010-12-03 00:25:30",389152,2.111,64.5,6.163,1.205,9.36,103.385,7.942,8.87,36.82,0,109.9,13.42,8.72,26.5
"2010-12-03 00:26:00",389153,2.14,61.03,7.731,1.189,9.81,103.3616,7.882,8.87,36.85,0,109.9,13.42,8.66,23.0
"2010-12-03 00:26:30",389154,1.992,58.62,7.559,1.135,9.59,103.3463,7.843,8.93,37.04,0,109.9,13.42,8.62,20.6
"2010-12-03 00:27:00",389155,3.589,70.82,6.263,1.074,11.94,103.3238,7.785,8.85,37.09,0,109.9,13.42,8.56,32.8
"2010-12-03 00:27:30",389156,2.964,73.5,8.52,1.297,11.26,103.3229,7.783,8.9,37.22,0,109.9,13.43,8.56,35.5
"2010-12-03 00:28:00",389157,2.55,73.88,7.161,1.188,9.61,103.3246,7.787,8.72,37.08,0,109.9,13.43,8.57,35.9
"2010-12-03 00:28:30",389158,1.744,65.54,1.191,0.031,7.734,103.3273,7.794,8.74,37.11,0,109.9,13.46,8.57,27.5
"2010-12-03 00:29:00",389159,1.645,58.53,2.25,0.054,7.435,103.3273,7.794,8.68,37.11,0,109.9,13.46,8.57,20.5
"2010-12-03 00:29:30",389160,2.019,55.29,4.36,0.992,8.01,103.307,7.742,8.65,37.19,0,109.9,13.43,8.52,17.3
"2010-12-03 00:30:00",389161,2.839,56.34,6.948,1.315,10.07,103.2932,7.707,8.75,37.43,0,109.9,13.43,8.49,18.3
"2010-12-03 00:30:30",389162,1.879,47.12,0.76,0.063,7.908,103.2633,7.63,8.65,37.48,0,109.9,13.46,8.41,9.1
"2010-12-03 00:31:00",389163,3.62,57.66,6.132,1.249,11.7,103.2336,7.555,8.78,37.84,0,109.9,13.43,8.33,19.7
"2010-12-03 00:31:30",389164,3.837,61.76,6.012,1.133,11.55,103.2288,7.542,8.71,37.98,0,109.9,13.43,8.32,23.8
"2010-12-03 00:32:00",389165,2.846,59.97,4.711,1.083,9.33,103.228,7.54,8.61,37.98,0,109.9,13.43,8.32,22.0
"2010-12-03 00:32:30",389166,2.309,58.9,1.137,0.04,7.611,103.2276,7.539,8.44,37.93,0,109.9,13.46,8.32,20.9
"2010-12-03 00:33:00",389167,2.333,62.2,0.735,0.055,7.816,103.233,7.553,8.42,37.95,0,109.9,13.46,8.33,24.2
"2010-12-03 00:33:30",389168,3.213,68.64,6.582,1.246,10.13,103.2361,7.561,8.56,38.12,0,109.9,13.43,8.34,30.6
"2010-12-03 00:34:00",389169,2.814,64.55,4.898,1.095,9.61,103.2396,7.57,8.57,38.12,0,109.9,13.43,8.35,26.6
"2010-12-03 00:34:30",389170,3.098,65.84,7.076,1.163,9.63,103.2416,7.575,8.49,38.06,0,109.9,13.43,8.35,27.8
"2010-12-03 00:35:00",389171,4.524,78.73,5.649,1.069,12.52,103.2422,7.577,8.6,38.26,0,109.9,13.43,8.36,40.7
"2010-12-03 00:35:30",389172,3.779,81.4,6.456,1.301,11.63,103.2454,7.585,8.65,38.09,0,109.9,13.42,8.36,43.4
"2010-12-03 00:36:00",389173,2.33,76.08,2.786,0.141,8.32,103.2734,7.656,8.5,37.24,0,109.9,13.46,8.44,38.1
"2010-12-03 00:36:30",389174,2.239,75.07,1.508,0.136,7.868,103.3066,7.741,8.5,36.89,0,109.9,13.45,8.52,37.1
"2010-12-03 00:37:00",389175,2.309,74.33,2.147,0.145,7.978,103.3242,7.786,8.53,36.72,0,109.9,13.45,8.57,36.3
"2010-12-03 00:37:30",389176,3.155,78.58,8.18,1.242,9.84,103.3516,7.856,8.61,36.69,0,109.9,13.42,8.64,40.6
"2010-12-03 00:38:00",389177,3.51,78.3,6.34,1.278,10.77,103.355,7.865,8.74,36.72,0,109.9,13.42,8.64,40.3
"2010-12-03 00:38:30",389178,3.32,73.42,6.026,1.336,10.92,103.3568,7.869,8.82,36.87,0,109.9,13.42,8.65,35.4
"2010-12-03 00:39:00",389179,5.166,80,3.735,0.743,13.08,103.3571,7.87,8.96,36.78,0,109.9,13.42,8.65,42.0
"2010-12-03 00:39:30",389180,5.021,76.92,6.036,1.153,12.01,103.3568,7.869,8.89,36.54,0,109.9,13.42,8.65,38.9
"2010-12-03 00:40:00",389181,3.533,67.59,3.104,0.621,8.2,103.3559,7.867,8.63,36.32,0,109.9,13.42,8.65,29.6
"2010-12-03 00:40:30",389182,3.611,66.43,0.507,0.07,7.757,103.3449,7.839,8.63,36.47,0,109.9,13.46,8.62,28.4
"2010-12-03 00:41:00",389183,4.108,67.64,5.176,0.888,9.2,103.3265,7.792,8.75,36.65,0,109.9,13.43,8.57,29.6
"2010-12-03 00:41:30",389184,4.685,70.69,6.79,1.26,10.06,103.3232,7.783,8.68,36.65,0,109.9,13.43,8.56,32.7
"2010-12-03 00:42:00",389185,4.931,69.28,5.97,1.273,11.61,103.3232,7.783,8.8,37.15,0,109.9,13.43,8.56,31.3
"2010-12-03 00:42:30",389186,5.999,70.42,3.877,0.835,13.24,103.3037,7.734,8.9,37.44,0,109.9,13.43,8.51,32.4
"2010-12-03 00:43:00",389187,5.32,65.33,6.914,1.22,10.98,103.2893,7.697,8.73,37.32,0,109.9,13.43,8.48,27.3
"2010-12-03 00:43:30",389188,3.71,56.35,0.806,0.048,7.814,103.2893,7.697,8.53,37.18,0,109.9,13.47,8.48,18.3
"2010-12-03 00:44:00",389189,4.024,56.13,4.61,0.914,8.53,103.289,7.696,8.52,37.1,0,109.9,13.43,8.48,18.1
"2010-12-03 00:44:30",389190,4.07,56.12,4.716,0.895,9.22,103.2827,7.68,8.64,37.33,0,109.9,13.43,8.46,18.1
"2010-12-03 00:45:00",389191,4.558,58.25,6.329,1.233,9.97,103.2649,7.635,8.6,37.34,0,109.9,13.43,8.41,20.2
"2010-12-03 00:45:30",389192,6.201,64.61,3.673,0.816,13.14,103.2553,7.61,8.81,37.63,0,109.9,13.43,8.39,26.6
"2010-12-03 00:46:00",389193,6.252,65.28,5.201,0.609,13.31,103.2553,7.61,8.79,37.61,0,109.9,13.43,8.39,27.3
"2010-12-03 00:46:30",389194,5.229,59.7,6.265,1.186,10.39,103.2553,7.61,8.57,37.49,0,109.9,13.43,8.39,21.7
"2010-12-03 00:47:00",389195,4.326,54.79,1.088,0.09,7.687,103.2389,7.568,8.44,37.58,0,109.9,13.47,8.35,16.8
"2010-12-03 00:47:30",389196,5.572,53.55,6.042,1.34,9.29,103.2084,7.49,8.51,38.22,0,109.9,13.43,8.27,15.5
"2010-12-03 00:48:00",389197,4.758,53.05,6.253,0.827,9.2,103.1663,7.383,8.44,38.43,0,109.9,13.43,8.16,15.0
"2010-12-03 00:48:30",389198,6.45,63.99,3.99,0.802,12.86,103.1536,7.35,8.47,38.41,0,109.9,13.43,8.13,26.0
"2010-12-03 00:49:00",389199,6.279,65.51,3.324,0.909,12.99,103.1536,7.35,8.59,38.78,0,109.9,13.43,8.13,27.5
"2010-12-03 00:49:30",389200,6.188,63.57,4.579,0.815,12.37,103.1536,7.35,8.46,38.82,0,109.9,13.43,8.13,25.6
"2010-12-03 00:50:00",389201,3.89,53.16,1.162,0.098,7.856,103.1536,7.35,8.22,38.61,0,109.9,13.47,8.13,15.2
"2010-12-03 00:50:30",389202,4.637,54.66,5.199,1.13,8.7,103.1536,7.35,8.2,38.55,0,109.9,13.43,8.13,16.7
"2010-12-03 00:51:00",389203,4.439,59.23,5.702,1.127,9.69,103.1536,7.35,8.35,38.74,0,109.9,13.43,8.13,21.2
"2010-12-03 00:51:30",389204,3.928,55.4,3.695,0.802,8.63,103.1536,7.35,8.22,38.63,0,109.9,13.43,8.13,17.4
"2010-12-03 00:52:00",389205,6.02,66.79,4.239,0.725,12.95,103.1536,7.35,8.42,38.84,0,109.9,13.43,8.13,28.8
"2010-12-03 00:52:30",389206,5.882,67.21,3.663,0.814,12.93,103.1536,7.35,8.49,38.84,0,109.9,13.43,8.13,29.2
"2010-12-03 00:53:00",389207,4.711,59.62,6.981,1.291,9.79,103.1536,7.35,8.33,38.82,0,109.9,13.43,8.13,21.6
"2010-12-03 00:53:30",389208,3.755,55.3,1.158,0.065,7.579,103.1536,7.35,8.17,38.63,0,109.9,13.46,8.13,17.3
"2010-12-03 00:54:00",389209,4.328,57.7,4.858,1.063,8.37,103.1525,7.347,8.23,38.75,0,109.9,13.42,8.13,19.7
"2010-12-03 00:54:30",389210,4.882,62.22,5.571,1.214,10.05,103.1367,7.307,8.26,38.77,0,109.9,13.43,8.08,24.2
"2010-12-03 00:55:00",389211,4.191,62.76,3.567,0.648,8.71,103.1352,7.303,8.26,38.35,0,109.9,13.43,8.08,24.8
"2010-12-03 00:55:30",389212,6.145,68.81,5.73,0.919,12.78,103.1361,7.305,8.46,38.51,0,109.9,13.43,8.08,30.8
"2010-12-03 00:56:00",389213,6.198,67.98,5.271,0.964,12.47,103.1338,7.3,8.44,38.61,0,110,13.43,8.08,30.0
"2010-12-03 00:56:30",389214,4.694,62.72,6.027,1.19,10.01,103.1338,7.3,8.33,38.47,0,109.9,13.43,8.08,24.7
"2010-12-03 00:57:00",389215,4.316,60.59,5.063,1.071,8.98,103.1327,7.297,8.26,38.12,0,109.9,13.43,8.07,22.6
"2010-12-03 00:57:30",389216,4.212,54.75,7.135,1.159,8.71,103.133,7.297,8.22,38.13,0,109.9,13.43,8.08,16.8
"2010-12-03 00:58:00",389217,4.459,54.07,8.24,1.199,9.71,103.1248,7.276,8.18,38.54,0,109.9,13.43,8.05,16.1
"2010-12-03 00:58:30",389218,4.887,57.32,8.85,1.176,10.45,103.1197,7.263,8.19,38.64,0,109.9,13.43,8.04,19.3
"2010-12-03 00:59:00",389219,5.81,65.39,4.195,0.798,12.89,103.1197,7.263,8.43,38.79,0,109.9,13.43,8.04,27.4
"2010-12-03 00:59:30",389220,5.424,64.08,5.764,1.044,11.45,103.1186,7.261,8.34,38.71,0,109.9,13.43,8.04,26.1
"2010-12-03 01:00:00",389221,3.601,54.46,4.696,0.581,7.91,103.103,7.221,8.13,38.62,0,109.9,13.43,8.00,16.5
"2010-12-03 01:00:30",389222,4.021,63.6,9.11,1.242,9.29,103.0886,7.184,8.2,38.71,0,109.9,13.43,7.96,25.6
"2010-12-03 01:01:00",389223,3.824,66.62,5.668,0.801,8.49,103.0858,7.177,8.16,38.74,0,109.9,13.43,7.95,28.6
"2010-12-03 01:01:30",389224,3.455,68.26,4.449,0.112,8.19,103.0858,7.177,8.09,38.41,0,109.9,13.47,7.95,30.3
"2010-12-03 01:02:00",389225,5.307,78.05,6.523,1.239,11.76,103.0861,7.178,8.21,38.18,0,109.9,13.44,7.95,40.1
"2010-12-03 01:02:30",389226,5.695,78.61,2.672,0.924,12.64,103.0858,7.177,8.36,38.52,0,109.9,13.44,7.95,40.6
"2010-12-03 01:03:00",389227,4.923,76.96,4.603,1.301,11.24,103.0858,7.177,8.31,38.51,0,109.9,13.44,7.95,39.0
"2010-12-03 01:03:30",389228,3.849,72.25,6.662,0.916,8.25,103.0858,7.177,8.09,38.17,0,109.9,13.44,7.95,34.2
"2010-12-03 01:04:00",389229,5.167,82,4.881,1.113,9.1,103.0866,7.179,8.07,37.82,0,109.9,13.43,7.96,44.0
"2010-12-03 01:04:30",389230,5.635,87.6,5.871,1.234,10.34,103.116,7.254,8.16,37.52,0,109.9,13.44,8.03,49.6
"2010-12-03 01:05:00",389231,5.573,87.9,7.012,1.314,10.2,103.135,7.302,8.12,37.16,0,109.9,13.44,8.08,49.9
"2010-12-03 01:05:30",389232,5.774,89.8,6.974,1.357,10.85,103.1544,7.352,8.39,37.19,0,109.9,13.44,8.13,51.8
"2010-12-03 01:06:00",389233,6.071,93.1,6.339,1.304,12.1,103.1776,7.412,8.4,36.85,0,109.9,13.44,8.19,55.1
"2010-12-03 01:06:30",389234,5.743,91.5,6.374,1.274,11.65,103.1901,7.443,8.42,36.65,0,109.9,13.44,8.22,53.5
"2010-12-03 01:07:00",389235,4.664,84.9,5.422,1.04,9.75,103.2042,7.479,8.38,36.52,0,109.9,13.44,8.26,46.9
"2010-12-03 01:07:30",389236,4.331,83,4.672,0.788,8.91,103.2118,7.499,8.37,36.56,0,109.9,13.44,8.28,45.0
"2010-12-03 01:08:00",389237,5.55,87.2,7.753,1.294,10.85,103.2195,7.518,8.49,36.39,0,109.9,13.44,8.30,49.2
"2010-12-03 01:08:30",389238,4.959,82.2,6.451,1.283,9.4,103.2214,7.523,8.31,36.26,0,109.9,13.44,8.30,44.2
"2010-12-03 01:09:00",389239,4.815,77.79,6.008,1.19,10.95,103.2169,7.512,8.62,37.01,0,109.9,13.43,8.29,39.8
"2010-12-03 01:09:30",389240,4.799,77.1,6.256,1.159,11.22,103.1901,7.443,8.54,37.36,0,109.9,13.43,8.22,39.1
"2010-12-03 01:10:00",389241,4.241,72.67,6.878,1.311,10.15,103.1635,7.375,8.37,37.54,0,109.9,13.43,8.15,34.7
"2010-12-03 01:10:30",389242,3.458,66.53,4.612,1.034,9.09,103.1386,7.312,8.35,37.75,0,109.9,13.43,8.09,28.5
"2010-12-03 01:11:00",389243,3.259,65.47,4.039,0.843,8.34,103.1189,7.261,8.27,37.83,0,109.9,13.43,8.04,27.5
"2010-12-03 01:11:30",389244,3.598,64.94,6.314,1.12,8.89,103.0954,7.201,8.24,37.81,0,109.9,13.43,7.98,26.9
"2010-12-03 01:12:00",389245,3.985,63.69,6.097,1.21,9.78,103.0858,7.177,8.22,37.98,0,109.9,13.43,7.95,25.7
"2010-12-03 01:12:30",389246,3.562,68.31,6.287,1.176,9.17,103.0824,7.168,8.16,38.06,0,109.9,13.43,7.95,30.3
"2010-12-03 01:13:00",389247,4.699,80.6,6.764,1.224,11.15,103.0768,7.154,8.29,38.03,0,109.9,13.43,7.93,42.6
"2010-12-03 01:13:30",389248,4.54,82,5.513,1.18,10.47,103.0838,7.172,8.21,37.79,0,109.9,13.44,7.95,44.0
"2010-12-03 01:14:00",389249,4.643,85.2,9.21,1.534,9.67,103.0858,7.177,8.17,37.44,0,109.9,13.44,7.95,47.2
"2010-12-03 01:14:30",389250,4.976,92.4,6.988,1.236,9.09,103.0892,7.185,8.15,36.96,0,109.9,13.44,7.96,54.4
"2010-12-03 01:15:00",389251,5.855,101.4,7.451,1.186,10.68,103.1169,7.256,8.21,36.63,0,109.9,13.44,8.03,63.4
"2010-12-03 01:15:30",389252,4.794,97.2,4.756,0.809,9.01,103.1276,7.284,8.26,36.38,0,109.9,13.45,8.06,59.2
"2010-12-03 01:16:00",389253,6.053,102.6,6.851,1.33,10.59,103.1508,7.343,8.32,36.26,0,109.9,13.44,8.12,64.6
"2010-12-03 01:16:30",389254,6.21,104.8,7.98,1.263,11.23,103.1581,7.362,8.42,36.13,0,109.9,13.45,8.14,66.8
"2010-12-03 01:17:00",389255,6.083,107,6.455,1.309,10.94,103.1816,7.422,8.32,35.7,0,109.9,13.45,8.20,69.0
"2010-12-03 01:17:30",389256,5.615,106.1,5.244,0.993,9.6,103.2031,7.477,8.34,35.34,0,109.9,13.44,8.25,68.1
"2010-12-03 01:18:00",389257,6.707,113,5.724,1.26,12.06,103.2274,7.539,8.56,35.23,0,109.9,13.45,8.32,75.0
"2010-12-03 01:18:30",389258,6.155,112.8,6.567,1.27,11.16,103.2596,7.621,8.51,34.99,0,109.9,13.45,8.40,74.8
"2010-12-03 01:19:00",389259,4.728,109.9,1.412,0.092,8.72,103.2926,7.705,8.56,34.88,0,109.9,13.48,8.48,71.9
"2010-12-03 01:19:30",389260,6.885,115.8,6.737,1.199,12.31,103.3206,7.777,8.76,34.73,0,110,13.44,8.56,77.8
"2010-12-03 01:20:00",389261,6.328,105.3,6.702,1.309,11.78,103.3297,7.8,8.86,34.82,0,109.9,13.45,8.58,67.3
"2010-12-03 01:20:30",389262,5.076,99.8,5.199,0.833,9.56,103.3322,7.807,8.74,34.77,0,109.9,13.45,8.59,61.8
"2010-12-03 01:21:00",389263,6.473,106.2,5.512,1.099,12.34,103.3234,7.784,8.81,34.85,0,109.9,13.44,8.56,68.2
"2010-12-03 01:21:30",389264,5.97,104.2,7.552,1.272,11.51,103.3232,7.783,8.84,35.13,0,109.9,13.45,8.56,66.2
"2010-12-03 01:22:00",389265,5.333,100.4,6.948,1.175,9.6,103.322,7.781,8.6,35.03,0,109.9,13.45,8.56,62.4
"2010-12-03 01:22:30",389266,4.606,94.8,7.805,1.29,9.44,103.3141,7.76,8.68,35.25,0,109.9,13.45,8.54,56.8
"2010-12-03 01:23:00",389267,5.283,94.3,8.69,1.061,11.72,103.2924,7.705,8.83,35.7,0,109.9,13.45,8.48,56.3
"2010-12-03 01:23:30",389268,4.133,96.6,7.33,0.858,9.66,103.2723,7.653,8.68,35.6,0,109.9,13.45,8.43,58.6
"2010-12-03 01:24:00",389269,4.192,92.6,3.119,0.942,8.69,103.2553,7.61,8.55,35.47,0,109.9,13.45,8.39,54.6
"2010-12-03 01:24:30",389270,5.064,94.6,7.486,1.14,11.55,103.2545,7.608,8.74,35.88,0,109.9,13.45,8.39,56.6
"2010-12-03 01:25:00",389271,3.444,83.7,4.595,0.746,8.73,103.222,7.525,8.62,36.28,0,109.9,13.45,8.30,45.7
"2010-12-03 01:25:30",389272,3.632,77.14,5.868,0.533,7.563,103.1926,7.45,8.42,36.42,0,109.9,13.45,8.23,39.1
"2010-12-03 01:26:00",389273,4.347,87.7,7.098,1.018,8.93,103.1624,7.373,8.47,36.73,0,109.9,13.45,8.15,49.7
"2010-12-03 01:26:30",389274,5.522,98.4,10.59,1.291,11.34,103.1533,7.349,8.56,36.78,0,109.9,13.45,8.13,60.4
"2010-12-03 01:27:00",389275,4.777,99.6,8.09,1.084,9.45,103.1536,7.35,8.27,36.26,0,109.9,13.45,8.13,61.6
"2010-12-03 01:27:30",389276,5.91,102.1,9.47,1.288,10.71,103.1536,7.35,8.42,36.42,0,109.9,13.45,8.13,64.1
"2010-12-03 01:28:00",389277,5.78,104,8.61,1.419,11.06,103.1536,7.35,8.51,36.69,0,109.9,13.45,8.13,66.0
"2010-12-03 01:28:30",389278,5.235,94,8.24,0.96,8.54,103.1468,7.333,8.23,36.5,0,109.9,13.45,8.11,56.0
"2010-12-03 01:29:00",389279,5.344,97,7.716,1.058,10.01,103.1398,7.315,8.37,36.54,0,109.9,13.45,8.09,59.0
"2010-12-03 01:29:30",389280,5.799,102,7.038,1.208,10.71,103.1378,7.31,8.44,36.58,0,109.9,13.45,8.09,64.0
"2010-12-03 01:30:00",389281,5.691,106.3,7.156,1.474,11.62,103.1516,7.345,8.43,36.38,0,109.9,13.45,8.12,68.3
"2010-12-03 01:30:30",389282,6.005,96.1,7.432,1.497,10.58,103.1536,7.35,8.23,36.48,0,109.9,13.45,8.13,58.1
"2010-12-03 01:31:00",389283,5.693,102,7.577,1.316,11.39,103.1536,7.35,8.44,36.48,0,109.9,13.45,8.13,64.0
"2010-12-03 01:31:30",389284,5.397,97.2,7.45,1.406,10.32,103.1536,7.35,8.37,36.27,0,109.9,13.45,8.13,59.2
"2010-12-03 01:32:00",389285,3.815,80.9,1.937,0.174,7.538,103.1536,7.35,8.22,36.46,0,109.9,13.48,8.13,42.9
"2010-12-03 01:32:30",389286,5.174,87,7.654,1.396,10.12,103.1522,7.347,8.41,36.73,0,109.9,13.45,8.12,49.0
"2010-12-03 01:33:00",389287,5.969,89.4,5.847,1.128,11.49,103.1491,7.339,8.38,36.69,0,109.9,13.45,8.12,51.4
"2010-12-03 01:33:30",389288,5.329,79.25,6.168,1.344,10.61,103.1299,7.289,8.34,36.94,0,109.9,13.45,8.07,41.2
"2010-12-03 01:34:00",389289,5.724,85.5,7.093,1.23,11.13,103.1197,7.263,8.32,36.99,0,109.9,13.45,8.04,47.5
"2010-12-03 01:34:30",389290,5.832,84.8,7.481,1.163,11.33,103.1042,7.224,8.32,37.2,0,109.9,13.45,8.00,46.8
"2010-12-03 01:35:00",389291,4.249,81.8,4.239,0.783,8.58,103.0861,7.178,8.21,37.02,0,109.9,13.45,7.95,43.8
"2010-12-03 01:35:30",389292,4.255,83.9,1.504,0.183,7.628,103.0858,7.177,8.1,36.88,0,109.9,13.48,7.95,45.9
"2010-12-03 01:36:00",389293,5.831,92.4,6.245,1.339,10.26,103.0858,7.177,8.32,36.99,0,109.9,13.45,7.95,54.4
"2010-12-03 01:36:30",389294,6.664,97.1,5.373,1.208,11.79,103.0858,7.177,8.3,36.81,0,109.9,13.45,7.95,59.1
"2010-12-03 01:37:00",389295,6.478,95.1,6.212,1.325,10.58,103.0858,7.177,8.33,36.65,0,109.9,13.45,7.95,57.1
"2010-12-03 01:37:30",389296,6.995,102.2,6.751,1.156,11.87,103.0929,7.195,8.3,36.45,0,109.9,13.45,7.97,64.2
"2010-12-03 01:38:00",389297,6.092,104.4,5.414,1.299,9.84,103.1189,7.261,8.19,35.96,0,109.9,13.45,8.04,66.4
"2010-12-03 01:38:30",389298,4.945,104.4,1.245,0.047,8.08,103.1429,7.323,8.15,35.53,0,109.9,13.48,8.10,66.4
"2010-12-03 01:39:00",389299,6.317,114.7,6.135,1.229,10.67,103.1686,7.388,8.27,35.3,0,109.9,13.45,8.17,76.7
"2010-12-03 01:39:30",389300,6.746,118.6,6.532,1.237,12.1,103.2019,7.474,8.43,35.18,0,109.9,13.45,8.25,80.6
"2010-12-03 01:40:00",389301,6.446,120.5,7.297,1.314,12.09,103.2279,7.54,8.64,35.3,0,109.9,13.45,8.32,82.5
"2010-12-03 01:40:30",389302,6.514,121,6.364,1.276,11.86,103.2562,7.612,8.59,35.2,0,109.9,13.45,8.39,83.0
"2010-12-03 01:41:00",389303,5.914,116.8,6.775,1.247,10.84,103.2878,7.693,8.61,34.68,0,109.9,13.45,8.47,78.8
"2010-12-03 01:41:30",389304,4.956,111.1,0.513,0.035,8.52,103.3107,7.752,8.57,34.34,0,109.9,13.48,8.53,73.1
"2010-12-03 01:42:00",389305,4.984,110.6,0.814,0.033,8.5,103.3232,7.783,8.6,34.2,0,109.9,13.48,8.56,72.6
"2010-12-03 01:42:30",389306,6.421,113.7,6.577,1.277,11.61,103.3367,7.818,8.84,34.3,0,109.9,13.44,8.60,75.7
"2010-12-03 01:43:00",389307,6.981,116.3,6.098,1.119,12.66,103.3494,7.851,8.86,34.25,0,109.9,13.44,8.63,78.3
"2010-12-03 01:43:30",389308,6.559,114,6.437,1.273,11.97,103.3562,7.868,8.91,34.19,0,109.9,13.44,8.65,76.0
"2010-12-03 01:44:00",389309,7.04,116.8,5.928,1.16,12.38,103.3571,7.87,8.92,34.07,0,109.9,13.44,8.65,78.8
"2010-12-03 01:44:30",389310,5.577,106.7,5.278,0.897,9.41,103.3571,7.87,8.81,33.93,0,109.9,13.44,8.65,68.7
"2010-12-03 01:45:00",389311,5.151,103.5,0.659,0.059,8.2,103.3571,7.87,8.68,33.8,0,109.9,13.47,8.65,65.5
"2010-12-03 01:45:30",389312,6.322,105,5.012,1.237,10.99,103.3537,7.861,8.85,34.17,0,109.9,13.44,8.64,67.0
"2010-12-03 01:46:00",389313,6.699,103.6,6.648,1.249,11.32,103.3274,7.794,8.89,34.54,0,109.9,13.44,8.57,65.6
"2010-12-03 01:46:30",389314,6.579,104,6.476,1.253,12.02,103.3124,7.756,8.87,34.88,0,109.9,13.45,8.54,66.0
"2010-12-03 01:47:00",389315,6.74,106.1,6.09,1.107,12.38,103.2893,7.697,8.83,34.98,0,109.9,13.45,8.48,68.1
"2010-12-03 01:47:30",389316,5.994,100.8,6.742,1.299,10.18,103.2666,7.639,8.65,34.76,0,109.9,13.45,8.42,62.8
"2010-12-03 01:48:00",389317,4.709,95.1,0.566,0.046,7.851,103.2553,7.61,8.51,34.98,0,109.9,13.48,8.39,57.1
"2010-12-03 01:48:30",389318,5.938,100.2,6.399,1.284,10.06,103.2341,7.556,8.63,35.39,0,109.9,13.45,8.33,62.2
"2010-12-03 01:49:00",389319,6.285,99.3,6.745,1.337,10.49,103.2203,7.521,8.59,35.63,0,109.9,13.45,8.30,61.3
"2010-12-03 01:49:30",389320,6.662,104.2,6.355,1.202,12.36,103.1997,7.468,8.61,35.73,0,109.9,13.45,8.25,66.2
"2010-12-03 01:50:00",389321,6.805,105.3,5.923,1.185,12.05,103.1878,7.438,8.57,35.42,0,109.9,13.45,8.22,67.3
"2010-12-03 01:50:30",389322,6.053,103.4,6.498,1.231,10.54,103.1875,7.437,8.58,35.2,0,109.9,13.45,8.21,65.4
"2010-12-03 01:51:00",389323,5.836,103.6,5.599,1.227,9.86,103.1943,7.454,8.42,34.9,0,109.9,13.45,8.23,65.6
"2010-12-03 01:51:30",389324,4.84,100.1,0.17,0.031,8.34,103.2093,7.492,8.47,34.88,0,109.9,13.48,8.27,62.1